Starlink 5030

operational
NORAD ID: 55418 Int'l Des: 2023-014 Owner: SPXS Country: US Constellation: starlink
LEOCIRCULAR

Über Starlink 5030

Beschreibung wird geladen...

Live-Position

3D-Globus wird geladen...

Nächste Überflüge

Höhenverlauf

Altitude vs Time

uPlot chart will show altitude changes over time

Zweizeiliger Elementsatz

1 55418U 23014AD 25260.12518223 -.00000997 00000-0 -75781-4 0 9991
2 55418 70.0005 162.0892 0002652 269.8290 90.2565 14.98319199145568
Epoch: 17. Sept. 2025 • Age: 21 hours

Aktueller Status

Höhe 584.8 km
Geschwindigkeit 7.57 km/s
Subsatellitenpunkt 66.86°N, 79.54°W
Startdatum 31. Jan. 2023
Alter 2.6 years
Typ internet

Technische Details

Klassifizierung Payload
Masse 305.00 kg
Trockenmasse 290.00 kg
Gesamtmasse 305.00 kg
Länge 0.20 m
Durchmesser 2.80 m
Spannweite 9.00 m
Form Box + pan
Hersteller SPXS
Bus-Typ Starlink
Phasenstatus In Orbit
Besitzer/Staat SPXS/US

Große Konstellationen

Loading constellations...